Вернуться в каталог

VANGUARD DEB

АктивенUNKNOWN
NORAD 1576·DEBRIS·🇺🇸 United States

Запущен Mar 17, 1958 с Cape Canaveral Space Force Station

Loading…

Ближайшие Пролёты (ближайшие 24 часа)

TLE

СвежийSource: Space-Track

Эпоха: Sep 14, 2026, 09:14 UTC

1 01576U 58002C   26257.38503537  .00002288  00000-0  20188-2 0  9991
2 01576  34.2216 143.4136 1385998 136.4130 235.4741 11.83529432812670

Отслеживайте VANGUARD DEB в реальном времени с AllMySat

Download on the App Store